Regional Weather Roundup
Issued by NWS San Angelo, TX

Home | Current Version | Previous Version | Text Only | Print | Product List | Glossary On
Versions: 1 2 3 4 5 6 7 8 9 10 11 12 13 14 15 16 17 18 19 20 21 22 23 24 25 26 27 28 29 30 31 32 33 34 35 36 37 38 39 40 41 42 43 44 45 46 47 48 49 50
000
ASUS44 KSJT 201410
RWRSJT
WEST CENTRAL TEXAS REGIONAL WEATHER ROUNDUP
NATIONAL WEATHER SERVICE SAN ANGELO TX
800 AM CST MON FEB 20 2017

NOTE: "FAIR" INDICATES FEW OR NO CLOUDS BELOW 12,000 FEET WITH NO
SIGNIFICANT WEATHER AND/OR OBSTRUCTIONS TO VISIBILITY.

TXZ049-054-064>066-071>073-076>078-098-099-113-114-127-128-139-140-
154-155-168>170-201500
...LOCATIONS ACROSS WEST CENTRAL TEXAS...

CITY           SKY/WX    TMP DP  RH WIND       PRES   REMARKS
SAN ANGELO     PTCLDY    47  41  80 SW10      29.96R
ABILENE        CLOUDY    51  47  86 SW7       29.93R
DYESS AFB      CLOUDY    51  42  70 W6        29.91R
JUNCTION       CLOUDY    53  50  89 CALM      29.99R
SWEETWATER     CLOUDY    48  38  69 SW10      29.95S
BROWNWOOD      CLOUDY    54  54 100 S3        29.94R
COLEMAN        PTSUNNY   54  49  82 W5        29.93R
SONORA         MOCLDY    46  43  87 S3        30.04R
OZONA          NOT AVBL
BRADY          NOT AVBL
$$

TEXAS PANHANDLE/OKLAHOMA PANHANDLE

CITY           SKY/WX    TMP DP  RH WIND       PRES   REMARKS
AMARILLO       CLEAR     42  32  67 NW16      29.88R WCI  34
BORGER         CLEAR     45  30  55 NW9G17    29.87R
CANADIAN       CLOUDY    46  36  67 CALM      29.84R
DALHART        CLEAR     46  34  62 N13       29.92R
DUMAS          SUNNY     39  32  75 NW12      29.90R WCI  32
GUYMON         NOT AVBL
HEREFORD       SUNNY     37  33  87 NW10G16   29.91R WCI  29
PAMPA          SUNNY     40  34  77 W13       29.86R WCI  33
PERRYTON       PTCLDY    40  32  72 W10       29.83R WCI  34
$$

SOUTHERN PANHANDLE/SOUTH PLAINS/ROLLING PLAINS

CITY           SKY/WX    TMP DP  RH WIND       PRES   REMARKS
LUBBOCK        PTCLDY    43  33  68 W13       29.89R WCI  36
SNYDER         MOCLDY    40  35  81 SW6       29.94R WCI  36
CHILDRESS      CLEAR     48  38  68 W8        29.86R
SEMINOLE       SUNNY     43  32  64 W12       29.96R WCI  37
$$

PERMIAN BASIN

CITY           SKY/WX    TMP DP  RH WIND       PRES   REMARKS
MIDLAND        CLEAR     44  33  65 W10       29.96S WCI  39
ODESSA         CLEAR     45  31  58 W9        29.97S
WINK           CLEAR     46  34  62 W14       29.98R WCI  40
$$

FAR WEST/SOUTHWEST MOUNTAINS/TRANS PECOS

CITY           SKY/WX    TMP DP  RH WIND       PRES   REMARKS
ALPINE         SUNNY     46  32  56 SW5       30.14R
DRYDEN           N/A     49  39  68 W10       30.01R
EL PASO        PTCLDY    47  35  63 W13G21    30.12R
FORT STOCKTON  CLEAR     45  31  58 SW14      30.02R WCI  38
GUADALUPE PASS CLEAR     37  34  89 SW29G36   30.08R WCI  25
MARFA          CLEAR     43  32  65 W29G37    30.09S WCI  33
PECOS          SUNNY     50  35  55 W21G26    30.01R
$$

DALLAS/FORT WORTH METROPLEX

CITY           SKY/WX    TMP DP  RH WIND       PRES   REMARKS
DFW AIRPORT    CLOUDY    59  57  93 SE14      29.90F
FTW MEACHAM    CLOUDY    58  55  90 S10       29.93R
DAL-EXECUTIVE  LGT RAIN  57  57 100 SE16G23   29.92F
GRAND PRAIRIE  CLOUDY    57  57 100 E13       29.91F
ADDISON        RAIN      57  57 100 SE15G22   29.92S
MESQUITE       CLOUDY    57  55  94 SE14      29.98R FOG
LANCASTER      LGT RAIN  56  55  97 SE10      29.96F
$$

NORTH CENTRAL TEXAS

CITY           SKY/WX    TMP DP  RH WIND       PRES   REMARKS
SHRMAN/DENISON CLOUDY    56  55  97 S7        29.95R
GAINESVILLE    CLOUDY    55  53  95 SE3       29.93S
BRIDGEPORT     CLOUDY    55  55 100 S3        29.92R
DENTON         CLOUDY    57  56  96 SE8       29.89F
WAXAHACHIE     LGT RAIN  56  56 100 E12G20    29.93F
GRANBURY       CLOUDY    58  55  92 SE7       29.95R
$$

WESTERN NORTH TEXAS

CITY           SKY/WX    TMP DP  RH WIND       PRES   REMARKS
WICHITA FALLS  CLOUDY    54  52  93 S15       29.86R
VERNON         MOSUNNY   53  49  84 SW7       29.85R
BRECKENRIDGE   CLOUDY    56  53  88 SW6       29.91R
COMANCHE       CLOUDY    53  53 100 SE5       29.93S
$$

CENTRAL AND SOUTH CENTRAL TEXAS

CITY           SKY/WX    TMP DP  RH WIND       PRES   REMARKS
AUSTIN/BERGSTM LGT RAIN  60  60 100 CALM      29.98R
WACO           CLOUDY    57  57 100 MISG      29.94R
HILLSBORO      CLOUDY    58  57  97 SE15      29.96R
TEMPLE         LGT RAIN  57  56  96 E14       29.97R
KILLEEN-GRAY   CLOUDY    56  56  98 S12       30.01R
FORT HOOD      CLOUDY    56  56 100 SE14      29.94R
GEORGETOWN     LGT RAIN  57  54  88 E9        29.98R
LAGO VISTA     LGT RAIN  58  57  97 CALM      30.00R VSB 1
SAN MARCOS     CLOUDY    57  57 100 NE9       29.97R
NEW BRAUNFELS  CLOUDY    60  58  92 NW9       30.00R
RANDOLPH AFB   LGT RAIN  59  59 100 NE3       29.97R
SAN ANTONIO    CLOUDY    60  58  92 N5        29.99R
STINSON          N/A     61  59  94 NW6       29.96R
PLEASANTON     NOT AVBL
LA GRANGE      RAIN      60  60  97 E7        29.98R
GIDDINGS       HVY RAIN  57  56  97 E8        30.00R
$$

EAST TEXAS

CITY           SKY/WX    TMP DP  RH WIND       PRES   REMARKS
PARIS          CLOUDY    55  54  94 SW7       29.98R
CLARKSVILLE    NOT AVBL
TYLER          RAIN      58  58 100 SE7       30.01R
LONGVIEW       RAIN      59  58  96 SW13      30.05R FOG
PALESTINE      NOT AVBL
NACOGDOCHES    CLOUDY    59  55  88 SW9       30.05R
$$

TEXAS HILL COUNTRY AND EDWARDS PLATEAU

CITY           SKY/WX    TMP DP  RH WIND       PRES   REMARKS
LLANO          CLOUDY    57  55  94 CALM      30.03R
HORSESHOE BAY  CLOUDY    57  57  97 S3        30.01R
KERRVILLE      CLOUDY    56  55  95 NW5       29.98R
FREDERICKSBRG  MOCLDY    55  53  94 W3          N/A
ROCKSPRINGS    CLOUDY    54  45  71 N7        30.03R
HONDO          CLOUDY    58  56  93 N5        29.97R
UVALDE         PTSUNNY   56  54  91 CALM      29.99R
DEL RIO        CLEAR     52  45  77 NW3       30.00R
$$

SOUTHEAST TEXAS

CITY           SKY/WX    TMP DP  RH WIND       PRES   REMARKS
COLLEGE STN    HVY RAIN  58  58 100 NE10      30.00R FOG
CALDWELL       NOT AVBL
CROCKETT       HVY RAIN  57  57 100 NE7       30.06R
BRENHAM        CLOUDY    60  59  98 E3        30.03R
HUNTSVILLE     HVY RAIN  59  57  93 NE7       30.02S FOG
CONROE         HVY RAIN  59  58  96 NE6       30.03R FOG
HOUSTON BUSH   LGT RAIN  62  60  93 N9        30.01R FOG
HOUSTON HOBBY  LGT RAIN  63  60  90 N17       30.00R
PERLAND        LGT RAIN  65  60  84 N12       30.01R
WHARTON        RAIN      60  60  97 N10       29.99R
$$

THE UPPER TEXAS COAST

CITY           SKY/WX    TMP DP  RH WIND       PRES   REMARKS
ORANGE         CLOUDY    71  68  91 E6        30.02R
PORT ARTHUR    CLOUDY    71  67  87 E6        30.00R
GALVESTON      CLOUDY    71  68  90 W5        29.98R FOG
ANGLETON       HVY RAIN  63  61  93 N9        30.01R FOG
BAY CITY       HVY RAIN  62  61  97 NE8       30.01R
$$

TEXAS COASTAL BEND, RIO GRANDE PLAINS DEEP SOUTH TEXAS

CITY           SKY/WX    TMP DP  RH WIND       PRES   REMARKS
VICTORIA       LGT RAIN  61  59  93 NE17      29.94S
BEEVILLE       LGT RAIN  55  55 100 CALM      29.95R
ROCKPORT       LGT RAIN  63  61  93 NE13      29.95R
PORT ARANSAS   LGT RAIN  64  63  97 NE12      29.95S
PORT LAVACA    LGT RAIN  61  61 100 NE17      29.94S
CORPUS CHRISTI LGT RAIN  63  63 100 E7        29.95R
KINGSVILLE NAS CLOUDY    64  64 100 CALM      29.95R
COTULLA        CLOUDY    60  57  89 NW5       29.96R
LAREDO         CLOUDY    60  57  89 W8        30.00R
BROWNSVILLE    CLOUDY    67  64  90 CALM      29.94R
PORT ISABEL    LGT RAIN  67  66  97 NW3       29.94R
HEBBRONVILLE   PTSUNNY   60  58  93 NW9       29.98R
MCALLEN        LGT RAIN  67  63  87 N10       29.93R
WESLACO        CLOUDY    65  64  94 N8        29.92S
FALFURRIAS     CLOUDY    64  62  96 N3        29.93S
EDINBURG       RAIN      67  64  89 NW3       29.96R
$$




USA.gov is the U.S. government's official web portal to all federal, state and local government web resources and services.